This is the latest recevied weather packets stored in our database for station/object DL4PY-13. If no packets are shown the sender has not sent any weather packets the latest 10 day(s).
| Time | Temp. | Humidity | Pressure | Rain* | Wind** | Luminosity | Snow |
|---|---|---|---|---|---|---|---|
| 1777723437 | 25° C | 40% | 1019.3 hPa | 0 mm | - | - | - |
| 1777722828 | 24.44° C | 42% | 1019.5 hPa | 0 mm | - | - | - |
| 1777722238 | 24.44° C | 40% | 1019.6 hPa | 0 mm | - | - | - |
| 1777721927 | 24.44° C | 41% | 1019.6 hPa | 0 mm | - | - | - |
| 1777721637 | 24.44° C | 41% | 1019.7 hPa | 0 mm | - | - | - |
| 1777721337 | 24.44° C | 40% | 1019.8 hPa | 0 mm | - | - | - |
| 1777721026 | 23.89° C | 40% | 1019.9 hPa | 0 mm | - | - | - |
| 1777720436 | 24.44° C | 40% | 1020 hPa | 0 mm | - | - | - |
| 1777720128 | 24.44° C | 40% | 1019.9 hPa | 0 mm | - | - | - |
| 1777719227 | 23.89° C | 40% | 1019.9 hPa | 0 mm | - | - | - |
| 1777718940 | 23.89° C | 42% | 1020 hPa | 0 mm | - | - | - |
| 1777718638 | 23.89° C | 40% | 1020 hPa | 0 mm | - | - | - |
| 1777718327 | 23.33° C | 41% | 1020.2 hPa | 0 mm | - | - | - |
| 1777718037 | 23.33° C | 42% | 1020.3 hPa | 0 mm | - | - | - |
| 1777717738 | 23.33° C | 41% | 1020.4 hPa | 0 mm | - | - | - |
| 1777717427 | 23.33° C | 43% | 1020.5 hPa | 0 mm | - | - | - |
| 1777716527 | 22.78° C | 43% | 1020.6 hPa | 0 mm | - | - | - |
| 1777716237 | 22.78° C | 42% | 1020.6 hPa | 0 mm | - | - | - |
| 1777715938 | 22.78° C | 42% | 1020.6 hPa | 0 mm | - | - | - |
| 1777715627 | 22.22° C | 44% | 1020.7 hPa | 0 mm | - | - | - |
| 1777715339 | 22.78° C | 42% | 1020.6 hPa | 0 mm | - | - | - |
| 1777714728 | 22.22° C | 41% | 1020.7 hPa | 0 mm | - | - | - |
| 1777714437 | 22.22° C | 41% | 1020.9 hPa | 0 mm | - | - | - |
| 1777714139 | 22.22° C | 42% | 1021 hPa | 0 mm | - | - | - |
| 1777713827 | 21.67° C | 42% | 1021 hPa | 0 mm | - | - | - |
* Rain latest hour (hover to see other rain measurements)
** Current wind speed in m/s (hover to see current wind gust speed)